EW2457 Weather Reports


Display with metric or nautical units.
time (UTC)temp
F
wind
direction
speed
MPH
gust
MPH
rain 1hr
in
rain 24hr
in
rain mn
in
humidity
%
barometer
mb
20260507003022 65 289 1.0 6.0 0.00 0.00 0.00 69 1016.8
20260507001520 64 88 1.0 4.0 0.00 0.00 0.00 70 1016.9
20260507000019 64 321 2.0 7.0 0.00 0.00 0.00 69 1016.9
20260506234519 65 155 2.0 6.0 0.00 0.00 0.00 69 1016.8
20260506233017 65 32 2.0 6.0 0.00 0.00 0.00 68 1017.1
20260506231516 66 125 2.0 8.0 0.00 0.00 0.00 68 1017.1
20260506230022 66 91 2.0 8.0 0.00 0.00 0.00 68 1017.2
20260506224513 66 30 2.0 6.0 0.00 0.00 0.00 68 1017.5
20260506223013 66 35 1.0 9.0 0.00 0.00 0.00 68 1017.6
20260506221512 67 86 2.0 8.0 0.00 0.00 0.00 66 1017.8
20260506220015 68 74 2.0 6.0 0.00 0.00 0.00 65 1018.0
20260506214510 69 349 2.0 6.0 0.00 0.00 0.00 64 1018.3
20260506213009 68 87 1.0 6.0 0.00 0.00 0.00 65 1018.2
20260506211508 69 316 1.0 4.0 0.00 0.00 0.00 63 1018.3
20260506210007 70 49 2.0 5.0 0.00 0.00 0.00 63 1018.3
20260506204505 69 160 1.0 5.0 0.00 0.00 0.00 64 1018.5
20260506203004 69 96 1.0 4.0 0.00 0.00 0.00 64 1018.6
20260506201514 69 121 1.0 3.0 0.00 0.00 0.00 63 1018.7
20260506200003 70 50 1.0 4.0 0.00 0.00 0.00 62 1018.8
20260506194505 70 141 1.0 4.0 0.00 0.00 0.00 62 1018.9
20260506193114 70 120 0.0 3.0 0.00 0.00 0.00 62 1018.9
20260506191615 69 217 0.0 4.0 0.00 0.00 0.00 64 1019.0
20260506190057 69 158 1.0 3.0 0.00 0.00 0.00 63 1019.2
20260506184608 68 149 0.0 3.0 0.00 0.00 0.00 66 1019.2
20260506183051 66 170 0.0 2.0 0.00 0.00 0.00 67 1019.3
20260506181550 66 278 0.0 3.0 0.00 0.00 0.00 66 1019.3
20260506180048 67 322 0.0 3.0 0.00 0.00 0.00 66 1019.2
20260506174544 65 145 0.0 2.0 0.00 0.01 0.00 68 1019.2
20260506173047 63 224 0.0 2.0 0.00 0.01 0.00 70 1019.3
20260506171554 64 226 0.0 3.0 0.00 0.01 0.00 69 1019.4
20260506170041 63 264 0.0 3.0 0.00 0.01 0.00 71 1019.4
20260506164535 62 153 0.0 2.0 0.00 0.01 0.00 71 1019.4
20260506163036 61 228 0.0 1.0 0.00 0.01 0.00 71 1019.4
20260506161535 61 79 0.0 1.0 0.00 0.01 0.00 72 1019.5
20260506160032 61 191 0.0 1.0 0.00 0.01 0.00 72 1019.4
20260506154527 60 160 0.0 2.0 0.00 0.01 0.00 73 1019.4
20260506153024 59 122 0.0 2.0 0.00 0.01 0.00 75 1019.4
20260506151524 57 131 0.0 1.0 0.00 0.01 0.00 76 1019.3
20260506150017 56 6 0.0 1.0 0.00 0.01 0.00 77 1019.3
20260506144516 56 16 0.0 3.0 0.00 0.01 0.00 77 1019.2
20260506143017 56 210 0.0 1.0 0.00 0.01 0.00 77 1019.2
20260506141511 55 222 0.0 1.0 0.00 0.01 0.00 77 1019.0
20260506140017 55 160 0.0 1.0 0.00 0.01 0.00 78 1018.9
20260506134507 55 160 0.0 1.0 0.00 0.01 0.00 77 1018.8
20260506133012 55 160 0.0 0.0 0.00 0.01 0.00 77 1018.7
20260506131507 55 160 0.0 0.0 0.00 0.01 0.00 78 1018.6
20260506130003 55 160 0.0 1.0 0.00 0.01 0.00 77 1018.6
20260506124501 55 163 0.0 1.0 0.00 0.01 0.00 77 1018.4
20260506123100 55 79 0.0 1.0 0.00 0.01 0.00 77 1018.4
20260506121601 55 79 0.0 1.0 0.00 0.01 0.00 77 1018.2
20260506121502 55 79 0.0 1.0 0.00 0.01 0.00 77 1018.2
20260506114558 55 116 0.0 1.0 0.00 0.01 0.00 77 1018.2
20260506113055 55 165 0.0 1.0 0.00 0.01 0.00 77 1018.0
20260506111554 55 32 0.0 1.0 0.00 0.01 0.00 77 1017.9
20260506110051 54 36 0.0 1.0 0.00 0.01 0.00 79 1017.8
20260506104555 54 356 0.0 1.0 0.00 0.01 0.00 79 1017.8
20260506103053 54 341 0.0 1.0 0.00 0.01 0.00 79 1017.7
20260506101549 53 316 0.0 0.0 0.00 0.01 0.00 79 1017.6
20260506094543 54 316 0.0 1.0 0.00 0.02 0.00 78 1017.7
20260506093042 54 323 0.0 2.0 0.00 0.02 0.00 78 1017.7
20260506091541 55 65 0.0 0.0 0.00 0.02 0.00 77 1017.5
20260506090039 55 337 0.0 1.0 0.00 0.02 0.00 77 1017.5
20260506084541 55 338 0.0 1.0 0.00 0.04 0.00 77 1017.6
20260506083038 55 23 0.0 1.0 0.00 0.04 0.00 77 1017.6
20260506081539 55 88 0.0 1.0 0.00 0.04 0.00 77 1017.6
20260506073032 55 10 0.0 0.0 0.00 0.07 0.00 77 1017.4
20260506071531 55 22 0.0 2.0 0.00 0.07 0.00 78 1017.3
20260506061524 56 39 0.0 1.0 0.00 0.08 0.07 77 1016.9
20260506044527 56 18 0.0 1.0 0.00 0.12 0.07 77 1016.3
20260506043017 55 30 0.0 1.0 0.00 0.12 0.07 77 1016.3
20260506041516 56 320 0.0 2.0 0.00 0.12 0.07 77 1016.2
20260506040012 56 260 0.0 2.0 0.00 0.12 0.07 77 1015.8
20260506034511 56 58 0.0 2.0 0.00 0.12 0.07 76 1015.6
20260506033010 57 5 0.0 4.0 0.00 0.12 0.07 76 1015.5
20260506031516 57 54 0.0 2.0 0.00 0.12 0.07 75 1015.3
20260506030019 57 273 0.0 4.0 0.00 0.12 0.07 75 1015.0
20260506024515 57 91 1.0 3.0 0.00 0.12 0.07 75 1015.0
20260506023004 58 191 0.0 5.0 0.00 0.12 0.07 75 1014.9
20260506021504 58 4 2.0 10.0 0.00 0.12 0.07 74 1014.7
20260506020004 58 13 2.0 6.0 0.00 0.12 0.07 74 1014.5
20260506014502 59 8 1.0 5.0 0.00 0.12 0.07 72 1014.6
20260506013002 60 25 1.0 6.0 0.00 0.12 0.07 71 1014.6
20260506011501 62 70 1.0 5.0 0.00 0.12 0.07 69 1014.7
20260506010106 63 218 2.0 4.0 0.00 0.12 0.07 66 1014.5
20260506004600 64 82 0.0 4.0 0.00 0.12 0.07 66 1014.5